Location: Bottenau
(48.5138°N, 8.0462°E)
Time: 12:12:47
(UTC+00:00)

FALCON 9 DEB - Visible Passes

Search period start: 27 July 2021 00:00
Search period end: 06 August 2021 00:00
Orbit: 422 x 432 km, 53.0° (Epoch: 26 July)

Date Brightness Start Highest point End Pass type
(mag) Time Alt. Az. Time Alt. Az. Time Alt. Az.
30 Jul 6.0 03:04:09 10° SE 03:04:27 10° SE 03:04:45 10° SE visible
01 Aug 4.7 03:08:01 10° SSW 03:10:55 26° SE 03:13:51 10° E visible
02 Aug 5.2 02:24:29 13° S 02:26:07 18° SE 02:28:30 10° E visible
03 Aug 5.6 01:41:13 12° SE 01:41:20 12° SE 01:42:38 10° ESE visible
03 Aug 3.3 03:14:20 11° SW 03:17:37 64° SSE 03:21:02 10° ENE visible
04 Aug 3.7 02:31:01 24° SSW 02:32:41 43° SE 02:35:58 10° ENE visible
05 Aug 4.2 01:47:40 29° SE 01:47:47 29° SE 01:50:49 10° ENE visible
05 Aug 3.4 03:21:05 10° WSW 03:24:28 63° NNW 03:27:54 10° ENE visible
